Temp
-4 -4 -3 -3 -4 -4 -4 -5 -5 -5 -5 -5 -5 -5 -6 -6 -6 -6 -6 -6 -6 -6 -7 -8 -8 -8 -9 -10 -10 -11 -10 -11 -11 -10 -10 -11 -11 -12 -12 -11 -11 -11 -12
-5 -5 -4 -4 -4 -4 -4 -4 -5 -4 -5 -5 -5 -5 -5 -5 -6 -6 -6 -5 -6 -6 -7 -7 -7 -8 -8 -9 -9 -10 -10 -10 -10 -10 -9 -10 -11 -10 -11 -11 -12 -12 -12
-5 -4 -5 -5 -5 -5 -5 -4 -5 -5 -5 -4 -4 -4 -5 -5 -5 -5 -5 -5 -5 -6 -6 -7 -8 -8 -8 -9 -9 -9 -9 -9 -10 -9 -9 -10 -10 -9 -10 -11 -11 -12 -12
-5 -5 -5 -5 -5 -4 -5 -4 -5 -5 -4 -4 -4 -4 -4 -4 -4 -5 -5 -5 -5 -6 -6 -6 -7 -8 -8 -8 -8 -9 -9 -9 -9 -9 -8 -9 -9 -9 -10 -12 -13 -13 -13
-5 -6 -5 -6 -5 -5 -5 -4 -5 -5 -4 -5 -4 -4 -4 -4 -4 -5 -5 -5 -5 -6 -6 -7 -7 -8 -9 -8 -8 -8 -9 -9 -9 -8 -9 -9 -9 -9 -10 -12 -11 -11 -11
-6 -6 -7 -5 -5 -5 -5 -5 -5 -5 -4 -4 -4 -4 -4 -4 -5 -5 -5 -5 -5 -6 -6 -7 -8 -8 -8 -8 -8 -7 -8 -8 -8 -8 -8 -8 -9 -9 -9 -11 -10 -10 -10
-7 -7 -6 -5 -6 -5 -5 -6 -6 -6 -6 -5 -5 -5 -4 -5 -5 -5 -5 -5 -5 -6 -6 -7 -7 -7 -8 -8 -8 -8 -8 -8 -8 -8 -7 -8 -8 -8 -9 -9 -9 -8 -9
-8 -7 -6 -6 -6 -7 -6 -7 -7 -7 -7 -6 -5 -5 -5 -5 -6 -5 -5 -5 -5 -6 -6 -7 -7 -7 -7 -7 -8 -8 -7 -8 -8 -8 -7 -7 -8 -8 -8 -8 -9 -9 -8
-8 -8 -8 -8 -8 -8 -8 -8 -8 -8 -9 -8 -7 -6 -6 -6 -7 -6 -6 -6 -6 -6 -7 -7 -7 -7 -7 -7 -7 -7 -8 -7 -7 -8 -8 -7 -7 -8 -8 -8 -8 -8 -8
-9 -8 -9 -8 -8 -8 -8 -7 -7 -7 -7 -7 -5 -6 -7 -7 -7 -7 -7 -6 -6 -6 -7 -7 -7 -7 -7 -7 -7 -7 -7 -7 -7 -7 -7 -7 -7 -7 -8 -8 -8 -8 -8
-9 -9 -8 -8 -8 -8 -8 -8 -7 -7 -7 -6 -5 -6 -7 -7 -8 -7 -7 -6 -7 -7 -7 -7 -8 -8 -7 -8 -7 -7 -7 -7 -7 -7 -7 -7 -7 -7 -8 -8 -8 -8 -8
-8 -9 -9 -8 -8 -9 -9 -8 -7 -6 -7 -6 -5 -4 -7 -7 -8 -8 -7 -7 -7 -7 -7 -7 -7 -8 -7 -8 -7 -7 -7 -6 -7 -7 -7 -7 -7 -7 -8 -8 -8 -8 -8
-8 -9 -9 -9 -9 -9 -9 -9 -8 -8 -8 -7 -7 -8 -7 -7 -8 -8 -8 -7 -7 -7 -7 -7 -7 -8 -8 -7 -7 -7 -7 -7 -7 -7 -7 -7 -7 -7 -7 -8 -8 -9 -9
-10 -9 -9 -9 -9 -9 -9 -9 -8 -8 -7 -6 -7 -7 -7 -7 -9 -9 -8 -8 -7 -7 -7 -7 -7 -7 -7 -8 -7 -7 -7 -7 -7 -7 -7 -7 -7 -7 -7 -7 -8 -8 -9
-10 -10 -9 -9 -8 -8 -8 -9 -9 -8 -8 -8 -9 -9 -8 -8 -8 -8 -8 -7 -7 -7 -7 -7 -7 -7 -7 -7 -7 -7 -7 -7 -7 -7 -7 -7 -7 -8 -7 -7 -7 -8 -8
-10 -10 -10 -9 -9 -9 -9 -9 -9 -9 -9 -9 -9 -9 -9 -9 -8 -9 -8 -8 -7 -7 -7 -7 -7 -7 -7 -7 -7 -7 -6 -7 -7 -7 -7 -7 -7 -7 -7 -7 -7 -7 -8
-10 -10 -10 -9 -9 -9 -9 -9 -9 -9 -9 -9 -10 -9 -9 -9 -9 -9 -8 -8 -8 -7 -7 -7 -7 -6 -6 -6 -7 -7 -7 -7 -7 -7 -8 -7 -7 -8 -8 -7 -7 -7 -8
-10 -10 -10 -9 -9 -9 -9 -9 -10 -10 -10 -10 -10 -10 -10 -10 -10 -9 -9 -9 -8 -8 -8 -7 -7 -6 -6 -6 -6 -7 -7 -7 -7 -7 -7 -7 -7 -7 -8 -8 -7 -7 -7
-11 -10 -10 -10 -10 -10 -9 -10 -10 -10 -10 -10 -11 -11 -11 -10 -10 -9 -9 -9 -9 -8 -8 -7 -7 -7 -6 -6 -7 -6 -7 -7 -6 -8 -7 -8 -8 -8 -8 -9 -8 -8 -8
-12 -12 -11 -11 -10 -10 -10 -11 -11 -11 -11 -10 -10 -10 -10 -10 -9 -9 -9 -9 -9 -8 -8 -7 -7 -7 -6 -7 -7 -7 -7 -8 -7 -8 -8 -8 -8 -8 -8 -9 -9 -8 -8
-15 -14 -13 -12 -11 -11 -11 -11 -11 -11 -11 -11 -11 -11 -11 -10 -10 -9 -9 -9 -9 -9 -8 -8 -8 -7 -7 -7 -7 -8 -8 -8 -8 -8 -8 -8 -8 -8 -8 -8 -9 -8 -8
-16 -16 -15 -14 -13 -12 -12 -11 -11 -11 -12 -12 -12 -11 -11 -11 -10 -10 -10 -9 -9 -9 -8 -8 -9 -9 -9 -8 -8 -8 -8 -8 -8 -8 -8 -8 -8 -8 -8 -8 -8 -10 -9
-17 -17 -16 -15 -15 -14 -13 -12 -12 -12 -12 -12 -12 -12 -11 -11 -10 -10 -10 -10 -9 -9 -9 -9 -9 -9 -10 -9 -9 -9 -9 -9 -8 -8 -8 -9 -8 -8 -8 -8 -9 -10 -10
-17 -17 -17 -16 -16 -15 -14 -14 -13 -13 -12 -12 -12 -12 -12 -11 -11 -11 -10 -10 -10 -10 -9 -9 -10 -10 -10 -9 -9 -9 -8 -8 -9 -8 -8 -8 -8 -9 -8 -9 -9 -9 -10
-17 -17 -17 -16 -16 -16 -15 -15 -14 -14 -13 -13 -13 -13 -13 -12 -12 -11 -11 -10 -10 -10 -9 -9 -9 -10 -10 -9 -9 -9 -8 -8 -9 -9 -9 -10 -9 -9 -9 -9 -9 -9 -9
-17 -16 -17 -16 -16 -16 -16 -15 -15 -14 -14 -14 -14 -13 -13 -13 -12 -12 -11 -11 -10 -10 -10 -10 -10 -10 -10 -10 -10 -10 -9 -9 -9 -9 -9 -9 -9 -9 -10 -9 -9 -9 -9
Height
5919 5921 5922 5921 5922 5922 5921 5921 5921 5920 5919 5919 5919 5920 5919 5918 5916 5913 5910 5905 5902 5898 5894 5890 5884 5877 5872 5866 5859 5852 5842 5831 5818 5804 5789 5775 5764 5753 5745 5740 5738 5738 5738
5913 5916 5918 5920 5920 5921 5922 5920 5919 5919 5917 5916 5915 5916 5916 5915 5914 5911 5907 5905 5901 5897 5892 5888 5882 5876 5870 5865 5858 5851 5843 5833 5821 5808 5794 5781 5769 5760 5752 5746 5744 5740 5740
5908 5909 5910 5912 5914 5916 5917 5918 5918 5917 5916 5915 5914 5913 5913 5912 5911 5908 5906 5903 5900 5895 5891 5886 5880 5874 5869 5864 5858 5851 5845 5836 5825 5813 5801 5787 5775 5767 5760 5753 5750 5749 5747
5906 5907 5908 5906 5907 5909 5911 5912 5914 5915 5915 5913 5913 5912 5911 5909 5908 5907 5904 5901 5898 5895 5889 5884 5879 5872 5868 5864 5858 5852 5847 5839 5830 5818 5808 5797 5784 5776 5769 5762 5757 5754 5752
5898 5902 5902 5902 5904 5903 5905 5905 5907 5910 5909 5910 5909 5909 5908 5906 5905 5905 5903 5899 5896 5893 5888 5882 5877 5872 5867 5863 5859 5853 5849 5841 5833 5824 5814 5806 5795 5786 5778 5772 5766 5761 5759
5894 5895 5896 5896 5898 5900 5899 5899 5900 5905 5908 5909 5908 5905 5906 5905 5901 5900 5899 5896 5894 5892 5886 5880 5876 5871 5865 5862 5859 5854 5849 5844 5837 5829 5820 5815 5807 5797 5790 5782 5776 5772 5771
5887 5890 5889 5891 5891 5893 5893 5895 5898 5899 5901 5902 5903 5903 5902 5902 5897 5896 5897 5894 5892 5890 5884 5879 5874 5870 5864 5861 5859 5855 5850 5846 5840 5833 5826 5820 5815 5809 5801 5794 5788 5784 5783
5878 5880 5882 5885 5886 5889 5889 5891 5888 5891 5894 5895 5897 5896 5898 5898 5895 5894 5894 5891 5890 5889 5884 5877 5873 5869 5865 5862 5858 5855 5851 5848 5843 5837 5831 5826 5821 5816 5812 5806 5803 5797 5795
5872 5874 5875 5877 5880 5882 5884 5881 5880 5882 5886 5888 5886 5887 5892 5892 5891 5890 5888 5888 5886 5884 5883 5876 5872 5868 5865 5862 5858 5854 5852 5849 5844 5840 5835 5831 5826 5822 5817 5815 5811 5807 5805
5866 5867 5870 5871 5872 5875 5875 5876 5876 5874 5876 5876 5872 5876 5883 5885 5883 5885 5884 5883 5882 5880 5881 5874 5871 5868 5864 5861 5859 5854 5851 5850 5845 5842 5837 5834 5831 5828 5824 5820 5816 5813 5811
5863 5863 5864 5865 5867 5867 5865 5869 5870 5865 5865 5856 5843 5862 5870 5875 5877 5881 5880 5872 5877 5876 5877 5873 5870 5867 5864 5859 5858 5855 5852 5850 5847 5844 5841 5836 5834 5830 5829 5825 5820 5819 5815
5856 5856 5857 5858 5858 5858 5858 5862 5865 5862 5853 5846 5829 5832 5859 5867 5868 5873 5875 5875 5877 5873 5873 5871 5867 5864 5863 5858 5856 5855 5853 5850 5848 5846 5843 5839 5836 5833 5831 5829 5825 5822 5819
5846 5848 5848 5848 5850 5849 5850 5853 5857 5859 5854 5847 5844 5852 5855 5856 5859 5863 5868 5869 5872 5872 5872 5867 5865 5862 5858 5859 5856 5854 5852 5850 5847 5846 5844 5841 5838 5835 5832 5830 5827 5823 5821
5831 5835 5838 5840 5841 5843 5846 5849 5852 5852 5852 5848 5848 5848 5854 5858 5856 5861 5863 5865 5866 5868 5868 5864 5861 5860 5857 5855 5853 5853 5849 5848 5847 5845 5843 5841 5839 5837 5834 5832 5828 5824 5820
5816 5821 5824 5827 5828 5830 5833 5838 5840 5844 5845 5845 5844 5846 5850 5852 5851 5857 5860 5862 5863 5863 5861 5860 5858 5856 5854 5854 5851 5850 5849 5846 5845 5843 5841 5839 5838 5837 5836 5834 5831 5827 5822
5801 5804 5810 5813 5815 5817 5820 5825 5829 5833 5837 5840 5842 5843 5845 5848 5850 5853 5855 5855 5856 5857 5856 5853 5853 5851 5849 5850 5849 5845 5847 5844 5842 5841 5839 5837 5837 5836 5835 5835 5833 5831 5827
5786 5790 5794 5799 5802 5805 5808 5812 5818 5821 5826 5830 5834 5837 5839 5841 5844 5847 5848 5848 5849 5849 5848 5848 5846 5844 5844 5844 5845 5840 5840 5841 5838 5837 5838 5836 5834 5835 5833 5833 5833 5832 5830
5770 5774 5779 5783 5788 5792 5797 5801 5805 5812 5815 5819 5823 5828 5832 5834 5837 5839 5840 5841 5842 5842 5842 5841 5839 5837 5837 5838 5837 5836 5835 5836 5834 5833 5833 5832 5832 5832 5832 5831 5832 5831 5831
5750 5757 5763 5768 5774 5779 5783 5788 5794 5798 5803 5808 5813 5817 5821 5824 5827 5828 5831 5833 5833 5834 5832 5832 5833 5831 5831 5829 5830 5827 5829 5830 5829 5829 5826 5826 5827 5828 5828 5829 5830 5831 5830
5731 5737 5744 5751 5758 5764 5769 5775 5781 5786 5791 5795 5801 5805 5809 5813 5816 5818 5820 5822 5824 5824 5824 5825 5826 5826 5824 5822 5825 5823 5822 5822 5822 5822 5821 5822 5822 5823 5824 5825 5826 5828 5828
5714 5720 5727 5734 5741 5748 5755 5762 5768 5774 5780 5784 5789 5794 5799 5803 5807 5810 5814 5815 5816 5817 5818 5818 5817 5816 5817 5816 5815 5815 5816 5816 5817 5816 5815 5816 5816 5818 5818 5819 5820 5823 5824
5699 5706 5712 5719 5726 5733 5739 5747 5755 5761 5767 5773 5778 5783 5789 5793 5797 5800 5804 5806 5807 5808 5809 5809 5810 5810 5809 5809 5808 5808 5809 5810 5809 5810 5810 5809 5810 5811 5811 5813 5813 5816 5819
5688 5693 5699 5706 5713 5720 5727 5735 5742 5748 5755 5761 5767 5772 5777 5782 5786 5789 5791 5794 5796 5799 5800 5801 5801 5803 5804 5803 5804 5803 5804 5804 5802 5803 5803 5802 5804 5805 5806 5807 5808 5810 5813
5679 5684 5688 5694 5701 5708 5716 5723 5730 5737 5744 5749 5755 5760 5765 5769 5773 5778 5781 5784 5786 5789 5790 5792 5793 5795 5797 5798 5798 5798 5797 5797 5796 5794 5792 5794 5799 5800 5801 5801 5803 5804 5805
5671 5674 5680 5685 5691 5699 5706 5713 5720 5727 5733 5739 5745 5750 5755 5759 5763 5768 5770 5773 5776 5779 5781 5783 5785 5788 5791 5791 5791 5791 5790 5790 5790 5789 5787 5789 5792 5793 5794 5796 5797 5798 5798
5662 5667 5672 5677 5682 5688 5695 5703 5710 5717 5724 5729 5735 5740 5744 5749 5753 5757 5760 5763 5767 5770 5773 5774 5776 5779 5783 5786 5786 5786 5785 5784 5784 5784 5783 5783 5782 5785 5788 5790 5791 5792 5792
Wind_Speed
23 22 21 19 17 15 14 13 13 12 11 11 11 13 15 19 20 21 23 24 26 27 28 28 30 32 33 33 34 38 45 52 60 58 57 49 33 24 18 14 13 13 13
22 21 21 20 18 17 17 15 15 17 16 15 12 10 13 18 20 20 22 24 25 26 26 27 29 30 32 33 36 37 42 49 57 55 55 48 30 28 21 16 14 17 20
19 20 20 20 18 20 21 18 18 20 20 18 14 10 10 14 18 19 21 22 24 25 25 24 27 30 30 31 34 37 39 46 52 53 52 50 35 31 26 21 17 16 15
19 17 20 20 20 21 23 21 21 23 22 18 14 13 10 11 15 17 20 23 24 24 25 25 24 24 27 29 32 35 35 42 48 49 49 47 43 33 23 27 20 21 31
19 21 24 22 23 21 24 23 25 25 25 22 16 13 10 11 13 18 20 22 21 24 24 23 23 24 25 27 29 32 32 37 43 45 46 43 41 34 26 22 33 32 29
24 23 27 31 31 30 25 26 28 29 26 23 20 14 11 11 11 17 20 19 23 25 25 23 23 23 29 24 27 30 30 32 39 41 43 41 41 39 36 35 35 36 31
23 19 14 20 28 33 27 27 29 34 32 28 22 15 9 11 13 18 15 18 21 25 24 23 23 23 32 21 25 26 28 29 35 37 38 40 35 37 36 34 33 33 32
12 14 12 18 20 28 36 34 38 36 35 28 21 15 10 13 14 15 17 18 21 24 22 21 22 22 28 25 22 22 25 25 29 33 34 34 36 30 30 32 29 30 26
12 15 18 21 22 24 30 31 40 34 29 27 28 19 14 15 14 16 18 18 19 21 23 19 18 22 23 27 28 28 22 22 25 27 30 30 31 32 27 25 26 25 21
16 16 21 25 26 26 23 28 39 47 40 40 22 16 16 16 14 18 19 19 15 16 16 13 17 21 22 25 27 28 21 20 22 24 27 29 27 27 28 24 20 20 19
23 17 20 27 30 27 24 23 28 35 47 49 39 25 22 14 15 17 18 25 7 5 12 15 17 19 21 23 25 26 26 19 20 22 21 25 27 25 25 24 19 17 19
41 36 35 32 30 27 25 23 25 31 34 32 17 18 16 15 15 11 11 13 7 7 10 15 19 19 21 21 24 24 25 24 20 20 21 20 23 24 23 24 20 15 16
44 40 37 39 40 35 32 31 29 34 40 32 23 14 19 19 9 10 11 11 13 15 16 19 20 21 20 22 21 26 26 23 21 21 18 18 19 21 22 22 24 20 19
45 45 40 39 42 42 41 36 32 35 31 12 21 16 18 16 2 11 15 17 18 18 20 22 22 21 23 25 24 25 28 20 21 22 22 15 15 17 19 21 22 24 22
57 52 49 48 50 49 48 40 35 31 32 30 29 19 16 15 10 17 20 22 23 22 21 24 26 24 25 25 26 28 23 21 20 20 23 15 12 12 15 16 17 20 22
56 56 56 57 57 53 48 42 37 33 31 30 30 24 20 18 18 20 23 24 24 24 24 26 28 28 29 29 28 29 26 19 23 19 21 11 11 11 11 12 14 14 17
58 58 57 54 53 51 49 44 39 38 35 32 27 26 24 24 24 24 25 25 25 27 26 29 29 29 31 32 30 31 21 22 19 17 23 16 13 12 10 10 9 11 10
54 57 58 57 54 52 50 46 43 42 42 38 32 30 28 29 28 30 28 29 28 29 31 32 33 31 33 34 30 28 23 23 23 31 25 22 13 9 11 9 8 6 7
56 55 55 57 57 54 51 47 45 42 41 41 37 34 33 34 35 35 34 31 33 34 32 31 35 34 35 34 27 29 31 27 28 27 23 19 14 12 11 10 10 6 5
56 54 53 54 55 55 53 50 46 43 41 40 39 39 38 38 37 38 36 36 34 33 32 33 34 34 34 24 30 35 23 33 26 23 13 22 18 14 10 9 12 12 8
49 48 50 53 55 55 53 50 49 47 45 43 42 42 41 39 37 36 36 35 34 32 32 31 30 30 29 24 21 20 22 25 28 23 18 17 16 21 12 16 15 15 13
45 46 47 51 53 55 54 51 49 47 46 44 44 44 43 41 39 37 35 36 35 34 33 30 28 24 19 15 15 17 22 26 24 22 21 15 14 16 19 20 19 19 15
39 43 44 47 48 50 51 50 49 48 46 45 44 42 39 39 39 37 34 33 33 34 34 32 29 23 18 17 16 15 17 18 20 21 25 16 10 9 9 8 12 20 18
33 37 40 42 43 45 47 47 47 45 43 41 39 38 38 38 38 38 36 35 35 34 34 34 31 23 19 21 20 20 19 20 17 24 21 20 17 11 11 9 16 12 13
30 35 36 37 39 41 43 42 43 43 41 38 38 38 37 37 37 37 37 36 36 35 36 34 33 28 21 18 18 16 17 17 15 18 18 17 20 15 12 12 15 17 17
32 32 36 34 38 41 42 43 43 42 41 40 38 38 38 39 37 37 37 36 36 36 37 38 36 29 22 20 18 14 11 11 15 15 18 22 19 18 21 17 17 17 16
Wind_Direction
248 250 249 246 246 240 239 240 255 260 269 283 302 319 330 327 330 334 336 335 333 331 332 333 335 337 341 346 345 350 1 1 2 5 10 12 24 34 54 60 56 60 77
241 247 257 259 258 258 258 251 253 265 269 277 291 315 326 329 328 331 331 335 338 337 333 336 336 337 343 348 352 354 6 5 5 8 13 16 29 35 35 39 49 85 98
231 234 236 240 244 256 258 263 260 264 266 272 281 296 318 328 330 333 336 345 345 342 340 340 342 342 345 350 354 357 10 10 9 10 18 17 33 36 38 47 67 84 88
246 249 249 244 244 248 254 261 260 262 268 269 277 291 307 321 324 332 342 347 345 346 348 345 339 349 350 354 357 359 13 14 13 11 23 22 33 38 54 55 73 78 76
222 246 272 261 256 250 257 259 259 258 260 262 263 274 293 313 317 329 334 340 342 346 350 344 343 348 356 356 359 2 12 19 17 15 24 25 38 44 38 43 70 75 77
242 257 256 271 262 260 256 260 264 267 266 265 261 263 285 294 310 316 324 342 338 344 345 347 344 348 355 2 359 5 8 21 23 21 21 29 34 48 54 66 76 75 84
240 260 279 283 251 257 256 267 274 274 267 263 260 268 280 285 296 307 321 336 334 335 341 346 342 355 1 5 5 8 7 18 27 22 26 25 31 42 53 54 65 78 83
255 251 248 255 256 261 255 274 277 271 262 251 249 256 266 283 287 304 309 322 327 327 337 345 345 4 359 2 357 356 7 13 25 25 27 28 26 33 43 57 57 66 85
240 256 264 260 263 265 275 288 269 254 251 250 245 234 256 258 277 287 292 303 317 320 323 337 359 1 3 8 12 8 3 6 22 25 26 31 30 27 33 44 61 67 60
257 253 259 262 265 270 278 273 269 255 253 239 221 234 240 247 274 281 294 291 302 325 326 351 357 359 353 5 6 12 12 7 13 19 24 26 32 31 28 33 44 55 62
267 259 269 266 267 277 278 284 283 289 258 258 252 213 223 231 264 283 302 315 287 318 323 339 349 355 352 359 3 5 13 9 358 10 18 23 26 27 28 31 27 44 51
266 265 265 264 269 276 285 282 280 283 291 266 292 227 226 226 260 287 325 349 330 336 336 326 334 346 348 356 357 1 5 12 12 359 3 19 21 23 21 22 35 37 39
255 255 254 260 267 272 284 287 278 278 270 288 292 212 231 220 223 308 321 324 313 311 315 324 324 330 340 344 354 347 350 1 14 5 350 358 16 17 18 15 17 32 36
259 254 251 251 256 262 271 275 262 264 272 247 246 231 224 241 22 322 308 302 301 297 306 315 314 321 332 333 331 343 333 337 350 355 349 340 356 14 15 12 12 19 31
255 253 254 254 259 262 271 271 263 260 268 277 285 292 292 311 320 282 281 292 292 292 299 301 304 309 316 320 323 324 328 324 336 341 344 333 331 358 10 14 9 13 28
259 258 254 255 260 262 265 264 257 259 258 260 265 275 282 277 275 277 280 275 281 292 295 297 299 300 306 311 317 317 319 312 325 336 344 328 318 326 347 3 11 8 25
253 255 257 255 255 257 258 259 255 253 255 256 256 252 262 262 267 267 280 280 279 282 283 289 293 298 300 303 311 309 309 293 316 320 335 326 317 303 311 333 358 4 14
251 249 250 251 252 252 252 252 252 250 254 259 257 253 252 255 259 262 274 273 275 278 279 282 286 290 293 294 303 302 297 303 288 305 310 311 294 289 284 294 315 338 348
251 248 245 244 246 248 250 248 246 245 245 245 252 251 249 253 257 262 272 273 278 276 278 280 282 284 284 286 294 286 292 287 283 292 300 307 276 281 263 264 276 289 298
246 245 240 238 238 240 243 243 244 245 241 242 245 249 254 256 260 265 270 270 276 272 274 272 275 279 282 286 267 276 275 285 288 293 285 282 268 250 248 267 248 254 262
237 239 235 229 228 231 235 238 241 241 240 238 241 244 249 254 255 258 261 263 268 268 269 272 275 281 286 290 282 266 271 261 275 273 257 272 255 271 266 269 246 236 246
235 228 228 228 228 226 228 232 236 237 236 236 239 242 245 252 253 255 256 256 260 265 268 274 281 289 292 293 284 268 264 264 263 261 245 246 254 266 243 253 242 224 233
237 233 229 228 229 229 228 229 232 236 238 239 240 242 243 246 250 253 252 255 257 261 264 271 278 282 283 283 284 276 262 273 265 248 249 240 248 263 247 244 256 234 233
236 234 230 225 228 226 226 228 232 233 235 238 239 239 241 244 247 249 247 250 255 256 259 267 273 280 278 280 276 275 267 269 288 261 268 224 235 252 285 274 247 241 251
240 230 227 223 222 224 222 224 228 230 230 230 232 236 240 243 245 246 247 249 250 254 257 259 266 269 270 260 265 265 269 276 293 285 238 198 241 233 280 290 288 243 250
234 231 231 233 222 221 219 220 222 223 226 227 229 234 238 241 242 241 242 243 246 248 253 258 262 264 260 240 245 251 263 283 274 275 273 258 257 222 238 253 259 257 255